Regional Weather Roundup
Issued by NWS

Home | Current Version | Previous Version | Text Only | Print | Product List | Glossary On
Versions: 1 2 3 4 5 6 7 8 9 10 11 12 13 14 15 16 17 18 19 20 21 22 23 24 25 26 27 28 29 30 31 32 33 34 35 36 37 38 39 40 41 42 43 44 45 46 47 48 49 50
000
ASUS43 KDTX 010110
RWRMI
MICHIGAN HOURLY REGIONAL WEATHER ROUNDUP
NATIONAL WEATHER SERVICE DETROIT/PONTIAC MI
900 PM EDT FRI JUL 31 2015

NOTE: "FAIR" INDICATES FEW OR NO CLOUDS BELOW 12,000 FEET WITH NO
SIGNIFICANT WEATHER AND/OR OBSTRUCTION TO VISIBILITY.

MIZ047>049-052>055-059>063-066>070-074>076-081>083-010200-
SOUTHEAST LOWER MICHIGAN

CITY           SKY/WX    TMP DP  RH WIND       PRES   REMARKS
ADRIAN         CLEAR     74  53  48 NW6       29.90R
ALMA           CLEAR     72  54  52 W6        29.87S
ANN ARBOR      CLEAR     72  52  49 W8        29.87S
BAD AXE        CLEAR     71  55  58 N10       29.84R
CARO           CLEAR     72  55  53 NW5       29.84R
DETROIT CITY   CLEAR     79  46  31 W7G18     29.84R
DETROIT        PTCLDY    77  48  35 W10       29.86R
FLINT          PTCLDY    75  56  51 W8        29.86R
GROSSE ILE     CLEAR     79  48  34 W9        29.84S
HILLSDALE      CLEAR     74  51  44 W8        29.92S
HOWELL         CLEAR     74  51  44 W8        29.87S

CITY           SKY/WX    TMP DP  RH WIND       PRES   REMARKS
JACKSON        CLEAR     71  50  47 W9        29.90R
LAMBERTVILLE   CLEAR     77  56  49 W5        29.88S
LANSING        CLEAR     73  53  49 W9        29.89R
LAPEER         FAIR      74  55  49 W6        29.85R
MASON          CLEAR     71  51  49 W5        29.89S
MONROE         CLEAR     74  56  52 W8        29.86R
MT. CLEMENS    CLEAR     78  51  38 W13       29.82R
PONTIAC        PTCLDY    74  52  46 W10       29.85S
PORT HOPE        N/A     72  63  73 N9        29.81R
PORT HURON     CLEAR     73  55  53 W3        29.83R
TRI CITIES     CLEAR     75  53  46 W9        29.85R
MIDLAND        FAIR      74  53  46 N6        29.85R
TROY           CLEAR     78  47  32 W9        29.87R
SAGINAW HB     CLEAR     75  52  43 W9        29.84R
$$
MIZ043>046-050>051-056>058-064>065-071>073-077>080-010200-
SOUTHWEST LOWER MICHIGAN

CITY           SKY/WX    TMP DP  RH WIND       PRES   REMARKS
BATTLE CREEK   CLEAR     73  51  46 W8        29.92S
BENTON HARBOR  PTCLDY    69  60  73 W5        29.93R
BIG RAPIDS     PTCLDY    72  50  45 W3        29.88R
COLDWATER      CLEAR     71  50  47 W6        29.92S
FREMONT        FAIR      72  50  46 CALM      29.88S
HOLLAND        CLEAR     73  57  57 W3        29.92R
GRAND RAPIDS   PTCLDY    76  51  41 W10       29.90R
IONIA          FAIR      74  52  45 W8        29.88S
KALAMAZOO      CLEAR     74  50  42 NW7       29.92R
LUDINGTON      MOCLDY    71  59  66 NE3       29.89S
MARSHALL       CLEAR     72  50  46 W6        29.91R
MOUNT PLEASANT PTCLDY    75  52  43 W6        29.86R
MUSKEGON       PTCLDY    73  58  59 W6        29.89S
SOUTH HAVEN    CLEAR     72  60  64 CALM      29.92S
$$
MIZ016>042-010200-
NORTHERN LOWER MICHIGAN

CITY           SKY/WX    TMP DP  RH WIND       PRES   REMARKS
ALPENA         CLOUDY    65  58  78 W3        29.82R
BEAVER ISLAND  PTCLDY    68  56  66 NW3       29.85R
BELLAIRE       CLEAR     70  52  53 CALM      29.85S
CADILLAC       MOCLDY    68  55  64 W7        29.89R
CHARLEVOIX     PTCLDY    67  59  75 W5        29.87S
FRANKFORT      PTCLDY    68  60  77 CALM      29.87R
GAYLORD        PTCLDY    67  53  61 W3        29.86S
GRAYLING       PTCLDY    69  52  54 W6        29.87R
HARBOR SPRINGS PTCLDY    67  56  68 W3        29.84R
HOUGHTON LAKE  PTCLDY    66  60  81 NW3       29.87S
MANISTEE       PTCLDY    66  61  82 CALM      29.88S
OSCODA         MOCLDY    68  57  68 W6        29.82S
PELLSTON       PTCLDY    69  52  54 NW10      29.84S
ROGERS CITY    MOCLDY    72  55  56 NW12G20   29.83R
TRAVERSE CITY  PTCLDY    74  54  49 NW8       29.84R
$$
MIZ007>008-015-010200-
EASTERN UPPER MICHIGAN

CITY           SKY/WX    TMP DP  RH WIND       PRES   REMARKS
KINROSS        CLEAR     64  55  72 NW9       29.82S
MACKINAC ISLAN CLEAR     67  53  61 NW8       29.82S
NEWBERRY       CLEAR     64  53  66 NW5       29.83R
S. S. MARIE    CLEAR     61  54  77 NW7       29.82R
MUNISING         N/A     68  55  63 N7        29.83S
$$
MIZ004>006-011>014-085-010200-
CENTRAL UPPER MICHIGAN

CITY           SKY/WX    TMP DP  RH WIND       PRES   REMARKS
MANISTIQUE     CLEAR     66  52  59 CALM      29.84R
ESCANABA       CLEAR     72  52  49 W8        29.84R
MENOMINEE      PTCLDY    73  50  43 N9        29.87R
SAWYER-GWINN   PTCLDY    70  48  46 NW12G18   29.86S
$$
MIZ001>003-009>011-084-010200-
WESTERN UPPER MICHIGAN

CITY           SKY/WX    TMP DP  RH WIND       PRES   REMARKS
IRON MOUNTAIN  CLEAR     69  52  54 NW9       29.88R
HOUGHTON       PTCLDY    65  53  65 W10       29.85R
COPPER HARBOR    N/A     68  53  58 NW8       29.81S
IRONWOOD       PTCLDY    64  59  82 W3        29.88S
$$

ABBREVIATIONS USED IN REMARKS
   TC - TEMPERATURE IN CELSIUS
  WCI - WIND CHILL INDEX
   HX - HEAT INDEX
  VSB - VISIBILITY



USA.gov is the U.S. government's official web portal to all federal, state and local government web resources and services.